Time,TemperatureF,DewpointF,PressureIn,WindDirection,WindDirectionDegrees,WindSpeedMPH,WindSpeedGustMPH,Humidity,HourlyPrecipIn,Conditions,Clouds,dailyrainin,SoftwareType,DateUTC
2013-02-23 00:01:00,34.3,23.1,29.77,North,0,0.0,0.0,63,0.00,,OVC036,0.00,VWS V12.08,2013-02-23 08:01:00,
2013-02-23 00:06:00,34.3,23.4,29.77,North,0,0.0,0.0,64,0.00,,OVC036,0.00,VWS V12.08,2013-02-23 08:06:00,
2013-02-23 00:11:00,34.3,23.4,29.80,North,0,0.0,0.0,64,0.00,,OVC036,0.00,VWS V12.08,2013-02-23 08:11:00,
2013-02-23 00:16:00,34.0,23.1,29.80,North,0,0.0,0.0,64,0.00,,OVC036,0.00,VWS V12.08,2013-02-23 08:16:00,
2013-02-23 00:21:00,34.0,23.8,29.80,North,0,0.0,0.0,66,0.00,,OVC036,0.00,VWS V12.08,2013-02-23 08:21:00,
2013-02-23 00:26:00,34.0,24.2,29.80,North,0,0.0,0.0,67,0.00,,OVC036,0.00,VWS V12.08,2013-02-23 08:26:00,
2013-02-23 00:31:00,33.8,24.0,29.80,North,0,0.0,0.0,67,0.00,,OVC036,0.00,VWS V12.08,2013-02-23 08:31:00,
2013-02-23 00:36:00,33.6,24.2,29.80,North,0,0.0,0.0,68,0.00,,OVC036,0.00,VWS V12.08,2013-02-23 08:36:00,
2013-02-23 00:41:00,33.6,24.2,29.80,North,0,0.0,0.0,68,0.00,,OVC036,0.00,VWS V12.08,2013-02-23 08:41:00,
2013-02-23 00:46:00,33.4,24.4,29.80,North,0,0.0,0.0,69,0.00,,OVC036,0.00,VWS V12.08,2013-02-23 08:46:00,
2013-02-23 00:51:00,33.3,24.2,29.80,North,0,0.0,0.0,69,0.00,,OVC036,0.00,VWS V12.08,2013-02-23 08:51:00,
2013-02-23 00:56:00,33.3,24.5,29.80,North,0,0.0,0.0,70,0.00,,OVC036,0.00,VWS V12.08,2013-02-23 08:56:00,
2013-02-23 01:01:00,33.3,24.5,29.80,North,0,0.0,0.0,70,0.00,,OVC036,0.00,VWS V12.08,2013-02-23 09:01:00,
2013-02-23 01:06:00,33.1,24.4,29.80,North,0,0.0,0.0,70,0.00,,OVC036,0.00,VWS V12.08,2013-02-23 09:06:00,
2013-02-23 01:11:00,32.9,24.2,29.80,North,0,0.0,0.0,70,0.00,,OVC036,0.00,VWS V12.08,2013-02-23 09:11:00,
2013-02-23 01:16:00,32.7,24.0,29.80,North,0,0.0,0.0,70,0.00,,OVC036,0.00,VWS V12.08,2013-02-23 09:16:00,
2013-02-23 01:21:00,32.5,23.9,29.80,North,0,0.0,0.0,70,0.00,,OVC036,0.00,VWS V12.08,2013-02-23 09:21:00,
2013-02-23 01:26:00,32.5,24.2,29.80,North,0,0.0,0.0,71,0.00,,OVC036,0.00,VWS V12.08,2013-02-23 09:26:00,
2013-02-23 01:31:00,32.5,24.2,29.80,North,0,0.0,0.0,71,0.00,,OVC036,0.00,VWS V12.08,2013-02-23 09:31:00,
2013-02-23 01:36:00,32.4,24.4,29.80,North,0,0.0,0.0,72,0.00,,OVC036,0.00,VWS V12.08,2013-02-23 09:36:00,
2013-02-23 01:41:00,32.4,24.7,29.83,North,0,0.0,0.0,73,0.00,,OVC036,0.00,VWS V12.08,2013-02-23 09:41:00,
2013-02-23 01:46:00,32.2,24.5,29.83,North,0,0.0,0.0,73,0.00,,OVC036,0.00,VWS V12.08,2013-02-23 09:46:00,
2013-02-23 01:51:00,32.2,24.8,29.83,North,0,0.0,0.0,74,0.00,,OVC036,0.00,VWS V12.08,2013-02-23 09:51:00,
2013-02-23 01:56:00,32.2,25.2,29.83,North,0,0.0,0.0,75,0.00,,OVC036,0.00,VWS V12.08,2013-02-23 09:56:00,
2013-02-23 02:01:00,32.2,25.5,29.83,North,0,0.0,0.0,76,0.00,,OVC036,0.00,VWS V12.08,2013-02-23 10:01:00,
2013-02-23 02:06:00,32.2,25.5,29.83,North,0,0.0,0.0,76,0.00,,OVC036,0.00,VWS V12.08,2013-02-23 10:06:00,
2013-02-23 02:11:00,32.2,25.8,29.83,North,0,0.0,0.0,77,0.00,,OVC036,0.00,VWS V12.08,2013-02-23 10:11:00,
2013-02-23 02:16:00,32.0,25.6,29.83,North,0,0.0,0.0,77,0.00,,OVC036,0.00,VWS V12.08,2013-02-23 10:16:00,
2013-02-23 02:21:00,32.0,25.6,29.83,North,0,0.0,0.0,77,0.00,,OVC036,0.00,VWS V12.08,2013-02-23 10:21:00,
2013-02-23 02:26:00,31.8,25.4,29.83,North,0,0.0,0.0,77,0.00,,OVC036,0.00,VWS V12.08,2013-02-23 10:26:00,
2013-02-23 02:31:00,31.6,25.3,29.83,North,0,0.0,0.0,77,0.00,,OVC036,0.00,VWS V12.08,2013-02-23 10:31:00,
2013-02-23 02:36:00,31.8,25.8,29.83,North,0,0.0,0.0,78,0.00,,OVC036,0.00,VWS V12.08,2013-02-23 10:36:00,
2013-02-23 02:41:00,32.0,26.2,29.83,North,0,0.0,0.0,79,0.00,,OVC036,0.00,VWS V12.08,2013-02-23 10:41:00,
2013-02-23 02:46:00,31.8,26.1,29.83,North,0,0.0,0.0,79,0.00,,OVC036,0.00,VWS V12.08,2013-02-23 10:46:00,
2013-02-23 02:51:00,32.0,26.2,29.83,North,0,0.0,0.0,79,0.00,,OVC036,0.00,VWS V12.08,2013-02-23 10:51:00,
2013-02-23 02:56:00,32.0,26.2,29.83,North,0,0.0,0.0,79,0.00,,OVC036,0.00,VWS V12.08,2013-02-23 10:56:00,
2013-02-23 03:01:00,32.0,26.2,29.83,North,0,0.0,0.0,79,0.00,,OVC036,0.00,VWS V12.08,2013-02-23 11:01:00,
2013-02-23 03:06:00,31.8,26.1,29.83,North,0,0.0,0.0,79,0.00,,OVC036,0.00,VWS V12.08,2013-02-23 11:06:00,
2013-02-23 03:11:00,31.6,25.9,29.85,North,0,0.0,0.0,79,0.00,,OVC036,0.00,VWS V12.08,2013-02-23 11:11:00,
2013-02-23 03:16:00,31.6,25.9,29.85,North,0,0.0,0.0,79,0.00,,OVC036,0.00,VWS V12.08,2013-02-23 11:16:00,
2013-02-23 03:21:00,31.5,25.7,29.85,North,0,0.0,0.0,79,0.00,,OVC036,0.00,VWS V12.08,2013-02-23 11:21:00,
2013-02-23 03:26:00,31.5,25.7,29.85,North,0,0.0,0.0,79,0.00,,OVC036,0.00,VWS V12.08,2013-02-23 11:26:00,
2013-02-23 03:31:00,31.3,25.8,29.85,North,0,0.0,0.0,80,0.00,,OVC036,0.00,VWS V12.08,2013-02-23 11:31:00,
2013-02-23 03:36:00,31.3,25.8,29.85,North,0,0.0,0.0,80,0.00,,OVC036,0.00,VWS V12.08,2013-02-23 11:36:00,
2013-02-23 03:41:00,31.1,26.0,29.85,North,0,0.0,0.0,81,0.00,,OVC036,0.00,VWS V12.08,2013-02-23 11:41:00,
2013-02-23 03:46:00,31.1,26.0,29.85,North,0,0.0,0.0,81,0.00,,OVC036,0.00,VWS V12.08,2013-02-23 11:46:00,
2013-02-23 03:51:00,31.1,26.3,29.85,North,0,0.0,0.0,82,0.00,,OVC036,0.00,VWS V12.08,2013-02-23 11:51:00,
2013-02-23 03:56:00,31.1,26.3,29.85,North,0,0.0,0.0,82,0.00,,OVC036,0.00,VWS V12.08,2013-02-23 11:56:00,
2013-02-23 04:01:00,31.1,26.3,29.85,North,0,0.0,0.0,82,0.00,,OVC036,0.00,VWS V12.08,2013-02-23 12:01:00,
2013-02-23 04:06:00,31.1,26.3,29.85,North,0,0.0,0.0,82,0.00,,OVC036,0.00,VWS V12.08,2013-02-23 12:06:00,
2013-02-23 04:11:00,30.9,26.1,29.85,North,0,0.0,0.0,82,0.00,,OVC036,0.00,VWS V12.08,2013-02-23 12:11:00,
2013-02-23 04:16:00,30.9,26.1,29.85,North,0,0.0,0.0,82,0.00,,OVC036,0.00,VWS V12.08,2013-02-23 12:16:00,
2013-02-23 04:21:00,30.7,26.2,29.85,North,0,0.0,0.0,83,0.00,,OVC036,0.00,VWS V12.08,2013-02-23 12:21:00,
2013-02-23 04:26:00,30.9,26.4,29.85,North,0,0.0,0.0,83,0.00,,OVC036,0.00,VWS V12.08,2013-02-23 12:26:00,
2013-02-23 04:31:00,31.1,26.8,29.85,North,0,0.0,0.0,84,0.00,,OVC036,0.00,VWS V12.08,2013-02-23 12:31:00,
2013-02-23 04:36:00,31.1,26.8,29.85,North,0,0.0,0.0,84,0.00,,OVC036,0.00,VWS V12.08,2013-02-23 12:36:00,
2013-02-23 04:41:00,31.1,27.1,29.88,North,0,0.0,0.0,85,0.00,,OVC036,0.00,VWS V12.08,2013-02-23 12:41:00,
2013-02-23 04:46:00,31.3,27.3,29.88,North,0,0.0,0.0,85,0.00,,OVC036,0.00,VWS V12.08,2013-02-23 12:46:00,
2013-02-23 04:51:00,31.3,27.3,29.88,North,0,0.0,0.0,85,0.00,,OVC036,0.00,VWS V12.08,2013-02-23 12:51:00,
2013-02-23 04:56:00,31.3,27.3,29.88,North,0,0.0,0.0,85,0.00,,OVC036,0.00,VWS V12.08,2013-02-23 12:56:00,
2013-02-23 05:01:00,31.3,27.3,29.88,North,0,0.0,0.0,85,0.00,,OVC036,0.00,VWS V12.08,2013-02-23 13:01:00,
2013-02-23 05:06:00,31.3,27.3,29.88,North,0,0.0,0.0,85,0.00,,OVC036,0.00,VWS V12.08,2013-02-23 13:06:00,
2013-02-23 05:11:00,31.3,27.3,29.88,North,0,0.0,0.0,85,0.00,,OVC036,0.00,VWS V12.08,2013-02-23 13:11:00,
2013-02-23 05:16:00,31.5,27.5,29.88,North,0,0.0,0.0,85,0.00,,OVC036,0.00,VWS V12.08,2013-02-23 13:16:00,
2013-02-23 05:21:00,31.5,27.8,29.88,North,0,0.0,0.0,86,0.00,,OVC036,0.00,VWS V12.08,2013-02-23 13:21:00,
2013-02-23 05:26:00,31.3,27.6,29.91,North,0,0.0,0.0,86,0.00,,OVC036,0.00,VWS V12.08,2013-02-23 13:26:00,
2013-02-23 05:31:00,31.3,27.6,29.91,North,0,0.0,0.0,86,0.00,,OVC036,0.00,VWS V12.08,2013-02-23 13:31:00,
2013-02-23 05:36:00,31.1,27.4,29.91,North,0,0.0,0.0,86,0.00,,OVC036,0.00,VWS V12.08,2013-02-23 13:36:00,
2013-02-23 05:41:00,31.1,27.4,29.91,North,0,0.0,0.0,86,0.00,,OVC036,0.00,VWS V12.08,2013-02-23 13:41:00,
2013-02-23 05:46:00,30.9,27.0,29.91,North,0,0.0,0.0,85,0.00,,OVC036,0.00,VWS V12.08,2013-02-23 13:46:00,
2013-02-23 05:51:00,30.9,27.2,29.91,North,0,0.0,0.0,86,0.00,,OVC036,0.00,VWS V12.08,2013-02-23 13:51:00,
2013-02-23 05:56:00,30.9,27.2,29.91,North,0,0.0,0.0,86,0.00,,OVC036,0.00,VWS V12.08,2013-02-23 13:56:00,
2013-02-23 06:01:00,30.9,27.2,29.91,North,0,0.0,0.0,86,0.00,,OVC036,0.00,VWS V12.08,2013-02-23 14:01:00,
2013-02-23 06:06:00,30.9,27.2,29.91,North,0,0.0,0.0,86,0.00,,OVC036,0.00,VWS V12.08,2013-02-23 14:06:00,
2013-02-23 06:11:00,31.1,27.4,29.91,North,0,0.0,0.0,86,0.00,,OVC036,0.00,VWS V12.08,2013-02-23 14:11:00,
2013-02-23 06:16:00,31.5,28.0,29.91,North,0,0.0,0.0,87,0.00,,OVC036,0.00,VWS V12.08,2013-02-23 14:16:00,
2013-02-23 06:21:00,31.5,28.0,29.91,North,0,0.0,0.0,87,0.00,,OVC036,0.00,VWS V12.08,2013-02-23 14:21:00,
2013-02-23 06:26:00,31.5,28.0,29.94,North,0,0.0,0.0,87,0.00,,OVC036,0.00,VWS V12.08,2013-02-23 14:26:00,
2013-02-23 06:31:00,31.5,28.0,29.94,North,0,0.0,0.0,87,0.00,,OVC036,0.00,VWS V12.08,2013-02-23 14:31:00,
2013-02-23 06:36:00,31.3,27.9,29.94,North,0,0.0,0.0,87,0.00,,OVC036,0.00,VWS V12.08,2013-02-23 14:36:00,
2013-02-23 06:41:00,31.3,27.9,29.94,North,0,0.0,0.0,87,0.00,,OVC036,0.00,VWS V12.08,2013-02-23 14:41:00,
2013-02-23 06:46:00,31.3,27.9,29.94,North,0,0.0,0.0,87,0.00,,OVC036,0.00,VWS V12.08,2013-02-23 14:46:00,
2013-02-23 06:51:00,31.3,27.9,29.94,North,0,0.0,0.0,87,0.00,,OVC036,0.00,VWS V12.08,2013-02-23 14:51:00,
2013-02-23 06:56:00,31.3,27.9,29.94,North,0,0.0,0.0,87,0.00,,OVC036,0.00,VWS V12.08,2013-02-23 14:56:00,
2013-02-23 07:01:00,31.5,28.3,29.94,North,0,0.0,0.0,88,0.00,,OVC036,0.00,VWS V12.08,2013-02-23 15:01:00,
2013-02-23 07:06:00,31.5,28.3,29.94,North,0,0.0,0.0,88,0.00,,OVC036,0.00,VWS V12.08,2013-02-23 15:06:00,
2013-02-23 07:11:00,31.3,28.1,29.94,North,0,0.0,0.0,88,0.00,,OVC036,0.00,VWS V12.08,2013-02-23 15:11:00,
2013-02-23 07:16:00,31.5,28.3,29.94,North,0,0.0,0.0,88,0.00,,OVC036,0.00,VWS V12.08,2013-02-23 15:16:00,
2013-02-23 07:21:00,31.6,28.8,29.94,North,0,0.0,0.0,89,0.00,,OVC036,0.00,VWS V12.08,2013-02-23 15:21:00,
2013-02-23 07:26:00,31.6,28.8,29.97,North,0,0.0,0.0,89,0.00,,OVC036,0.00,VWS V12.08,2013-02-23 15:26:00,
2013-02-23 07:31:00,32.2,29.3,29.97,North,0,0.0,0.0,89,0.00,,OVC036,0.00,VWS V12.08,2013-02-23 15:31:00,
2013-02-23 07:36:00,32.2,29.3,29.97,North,0,0.0,0.0,89,0.00,,OVC036,0.00,VWS V12.08,2013-02-23 15:36:00,
2013-02-23 07:41:00,32.2,29.3,29.97,North,0,0.0,0.0,89,0.00,,OVC036,0.00,VWS V12.08,2013-02-23 15:41:00,
2013-02-23 07:46:00,32.2,29.3,29.97,North,0,0.0,0.0,89,0.00,,OVC036,0.00,VWS V12.08,2013-02-23 15:46:00,
2013-02-23 07:51:00,32.0,29.1,29.97,North,0,0.0,0.0,89,0.00,,OVC036,0.00,VWS V12.08,2013-02-23 15:51:00,
2013-02-23 07:56:00,32.0,29.1,29.97,North,0,0.0,0.0,89,0.00,,OVC036,0.00,VWS V12.08,2013-02-23 15:56:00,
2013-02-23 08:01:00,32.0,29.1,29.97,North,0,0.0,0.0,89,0.00,,OVC036,0.00,VWS V12.08,2013-02-23 16:01:00,
2013-02-23 08:06:00,32.4,29.5,29.97,North,0,0.0,0.0,89,0.00,,OVC036,0.00,VWS V12.08,2013-02-23 16:06:00,
2013-02-23 08:11:00,32.9,30.3,30.00,North,0,0.0,0.0,90,0.00,,OVC036,0.00,VWS V12.08,2013-02-23 16:11:00,
2013-02-23 08:16:00,34.5,31.6,30.00,North,0,0.0,0.0,89,0.00,,OVC036,0.00,VWS V12.08,2013-02-23 16:16:00,
2013-02-23 08:21:00,36.1,33.2,30.00,North,0,0.0,0.0,89,0.00,,OVC036,0.00,VWS V12.08,2013-02-23 16:21:00,
2013-02-23 08:26:00,37.4,34.2,30.00,North,0,0.0,0.0,88,0.00,,OVC036,0.00,VWS V12.08,2013-02-23 16:26:00,
2013-02-23 08:31:00,37.9,34.1,30.00,North,0,0.0,0.0,86,0.00,,OVC036,0.00,VWS V12.08,2013-02-23 16:31:00,
2013-02-23 08:36:00,38.7,34.8,30.00,North,0,0.0,0.0,86,0.00,,OVC036,0.00,VWS V12.08,2013-02-23 16:36:00,
2013-02-23 08:41:00,39.7,35.9,30.00,North,0,0.0,0.0,86,0.00,,OVC036,0.00,VWS V12.08,2013-02-23 16:41:00,
2013-02-23 08:46:00,38.5,32.9,30.00,North,0,0.0,0.0,80,0.00,,OVC036,0.00,VWS V12.08,2013-02-23 16:46:00,
2013-02-23 08:51:00,39.2,34.2,30.00,North,0,0.0,0.0,82,0.00,,OVC036,0.00,VWS V12.08,2013-02-23 16:51:00,
2013-02-23 08:56:00,39.9,35.2,30.00,North,0,0.0,0.0,83,0.00,,OVC036,0.00,VWS V12.08,2013-02-23 16:56:00,
2013-02-23 09:01:00,41.0,36.5,30.00,North,0,0.0,0.0,84,0.00,,OVC036,0.00,VWS V12.08,2013-02-23 17:01:00,
2013-02-23 09:06:00,41.5,36.8,30.00,North,0,0.0,0.0,83,0.00,,OVC036,0.00,VWS V12.08,2013-02-23 17:06:00,
2013-02-23 09:11:00,41.7,33.4,30.03,North,0,0.0,0.0,72,0.00,,OVC036,0.00,VWS V12.08,2013-02-23 17:11:00,
2013-02-23 09:16:00,42.1,33.4,30.03,North,0,0.0,0.0,71,0.00,,OVC036,0.00,VWS V12.08,2013-02-23 17:16:00,
2013-02-23 09:21:00,42.3,30.2,30.03,North,0,0.0,0.0,62,0.00,,OVC036,0.00,VWS V12.08,2013-02-23 17:21:00,
2013-02-23 09:26:00,41.5,24.3,30.03,North,0,0.0,0.0,50,0.00,,OVC036,0.00,VWS V12.08,2013-02-23 17:26:00,
2013-02-23 09:31:00,41.5,24.8,30.03,North,0,0.0,0.0,51,0.00,,OVC036,0.00,VWS V12.08,2013-02-23 17:31:00,
2013-02-23 09:36:00,40.8,23.6,30.03,North,0,0.0,0.0,50,0.00,,OVC036,0.00,VWS V12.08,2013-02-23 17:36:00,
2013-02-23 09:41:00,40.6,24.9,30.03,North,0,0.0,0.0,53,0.00,,OVC036,0.00,VWS V12.08,2013-02-23 17:41:00,
2013-02-23 09:46:00,40.8,24.1,30.03,North,0,0.0,0.0,51,0.00,,OVC036,0.00,VWS V12.08,2013-02-23 17:46:00,
2013-02-23 09:51:00,41.2,24.9,30.03,North,0,0.0,0.0,52,0.00,,OVC036,0.00,VWS V12.08,2013-02-23 17:51:00,
2013-02-23 09:56:00,41.0,24.3,30.03,North,0,0.0,0.0,51,0.00,,OVC036,0.00,VWS V12.08,2013-02-23 17:56:00,
2013-02-23 10:01:00,40.5,24.7,30.03,North,0,0.0,0.0,53,0.00,,OVC036,0.00,VWS V12.08,2013-02-23 18:01:00,
2013-02-23 10:06:00,40.3,25.0,30.03,North,0,0.0,0.0,54,0.00,,OVC036,0.00,VWS V12.08,2013-02-23 18:06:00,
2013-02-23 10:11:00,40.8,25.9,30.06,North,0,0.0,0.0,55,0.00,,OVC036,0.00,VWS V12.08,2013-02-23 18:11:00,
2013-02-23 10:16:00,41.0,25.2,30.06,North,0,0.0,0.0,53,0.00,,OVC036,0.00,VWS V12.08,2013-02-23 18:16:00,
2013-02-23 10:21:00,41.2,24.4,30.06,North,0,0.0,0.0,51,0.00,,OVC036,0.00,VWS V12.08,2013-02-23 18:21:00,
2013-02-23 10:26:00,41.4,24.6,30.06,North,0,0.0,0.0,51,0.00,,OVC036,0.00,VWS V12.08,2013-02-23 18:26:00,
2013-02-23 10:31:00,41.4,24.6,30.06,North,0,0.0,0.0,51,0.00,,OVC036,0.00,VWS V12.08,2013-02-23 18:31:00,
2013-02-23 10:36:00,41.4,24.6,30.06,North,0,0.0,0.0,51,0.00,,OVC036,0.00,VWS V12.08,2013-02-23 18:36:00,
2013-02-23 10:41:00,41.4,24.6,30.06,North,0,0.0,0.0,51,0.00,,OVC036,0.00,VWS V12.08,2013-02-23 18:41:00,
2013-02-23 10:46:00,41.5,24.3,30.06,North,0,0.0,0.0,50,0.00,,OVC036,0.00,VWS V12.08,2013-02-23 18:46:00,
2013-02-23 10:51:00,41.4,24.1,30.06,North,0,0.0,0.0,50,0.00,,OVC036,0.00,VWS V12.08,2013-02-23 18:51:00,
2013-02-23 10:56:00,41.2,24.4,30.06,North,0,0.0,0.0,51,0.00,,OVC036,0.00,VWS V12.08,2013-02-23 18:56:00,
2013-02-23 11:01:00,41.4,24.1,30.06,North,0,0.0,0.0,50,0.00,,OVC036,0.00,VWS V12.08,2013-02-23 19:01:00,
2013-02-23 11:06:00,41.4,24.1,30.06,North,0,0.0,0.0,50,0.00,,OVC036,0.00,VWS V12.08,2013-02-23 19:06:00,
2013-02-23 11:11:00,42.1,24.8,30.06,North,0,0.0,0.0,50,0.00,,OVC036,0.00,VWS V12.08,2013-02-23 19:11:00,
2013-02-23 11:16:00,42.8,24.5,30.06,North,0,0.0,0.0,48,0.00,,OVC036,0.00,VWS V12.08,2013-02-23 19:16:00,
2013-02-23 11:21:00,43.0,22.6,30.06,North,0,0.0,0.0,44,0.00,,OVC036,0.00,VWS V12.08,2013-02-23 19:21:00,
2013-02-23 11:26:00,43.7,23.2,30.09,North,0,0.0,0.0,44,0.00,,OVC036,0.00,VWS V12.08,2013-02-23 19:26:00,
2013-02-23 11:31:00,43.7,23.8,30.09,North,0,0.0,0.0,45,0.00,,OVC036,0.00,VWS V12.08,2013-02-23 19:31:00,
2013-02-23 11:36:00,44.6,23.5,30.09,North,0,0.0,0.0,43,0.00,,OVC036,0.00,VWS V12.08,2013-02-23 19:36:00,
2013-02-23 11:41:00,44.2,22.6,30.09,North,0,0.0,0.0,42,0.00,,OVC036,0.00,VWS V12.08,2013-02-23 19:41:00,
2013-02-23 11:46:00,44.6,22.4,30.09,North,0,0.0,0.0,41,0.00,,OVC036,0.00,VWS V12.08,2013-02-23 19:46:00,
2013-02-23 11:51:00,44.8,22.5,30.09,North,0,0.0,0.0,41,0.00,,OVC036,0.00,VWS V12.08,2013-02-23 19:51:00,
2013-02-23 11:56:00,44.6,22.4,30.09,North,0,0.0,0.0,41,0.00,,OVC036,0.00,VWS V12.08,2013-02-23 19:56:00,
2013-02-23 12:01:00,45.0,22.7,30.09,North,0,0.0,0.0,41,0.00,,OVC036,0.00,VWS V12.08,2013-02-23 20:01:00,
2013-02-23 12:06:00,45.3,21.8,30.09,North,0,0.0,0.0,39,0.00,,OVC036,0.00,VWS V12.08,2013-02-23 20:06:00,
2013-02-23 12:11:00,45.1,21.7,30.09,North,0,0.0,0.0,39,0.00,,OVC036,0.00,VWS V12.08,2013-02-23 20:11:00,
2013-02-23 12:16:00,45.5,22.0,30.09,North,0,0.0,0.0,39,0.00,,OVC036,0.00,VWS V12.08,2013-02-23 20:16:00,
2013-02-23 12:21:00,46.0,22.5,30.09,North,0,0.0,0.0,39,0.00,,OVC036,0.00,VWS V12.08,2013-02-23 20:21:00,
2013-02-23 12:26:00,45.9,22.3,30.09,North,0,0.0,0.0,39,0.00,,OVC036,0.00,VWS V12.08,2013-02-23 20:26:00,
2013-02-23 12:31:00,45.9,22.3,30.09,North,0,0.0,0.0,39,0.00,,OVC036,0.00,VWS V12.08,2013-02-23 20:31:00,
2013-02-23 12:36:00,45.1,21.7,30.09,North,0,0.0,0.0,39,0.00,,OVC036,0.00,VWS V12.08,2013-02-23 20:36:00,
2013-02-23 12:41:00,45.9,22.3,30.09,North,0,0.0,0.0,39,0.00,,OVC036,0.00,VWS V12.08,2013-02-23 20:41:00,
2013-02-23 12:46:00,46.4,22.2,30.09,North,0,0.0,0.0,38,0.00,,OVC036,0.00,VWS V12.08,2013-02-23 20:46:00,
2013-02-23 12:51:00,46.9,22.7,30.09,North,0,0.0,0.0,38,0.00,,OVC036,0.00,VWS V12.08,2013-02-23 20:51:00,
2013-02-23 12:56:00,46.8,21.9,30.09,North,0,0.0,0.0,37,0.00,,OVC036,0.00,VWS V12.08,2013-02-23 20:56:00,
2013-02-23 13:01:00,46.9,22.7,30.09,North,0,0.0,0.0,38,0.00,,OVC036,0.00,VWS V12.08,2013-02-23 21:01:00,
2013-02-23 13:06:00,46.9,22.0,30.09,North,0,0.0,0.0,37,0.00,,OVC036,0.00,VWS V12.08,2013-02-23 21:06:00,
2013-02-23 13:11:00,47.1,22.2,30.09,North,0,0.0,0.0,37,0.00,,OVC036,0.00,VWS V12.08,2013-02-23 21:11:00,
2013-02-23 13:16:00,47.1,22.2,30.09,North,0,0.0,0.0,37,0.00,,OVC036,0.00,VWS V12.08,2013-02-23 21:16:00,
2013-02-23 13:21:00,46.6,21.7,30.09,North,0,0.0,0.0,37,0.00,,OVC036,0.00,VWS V12.08,2013-02-23 21:21:00,
2013-02-23 13:26:00,46.9,22.0,30.09,North,0,0.0,0.0,37,0.00,,OVC036,0.00,VWS V12.08,2013-02-23 21:26:00,
2013-02-23 13:31:00,46.9,22.0,30.09,North,0,0.0,0.0,37,0.00,,OVC036,0.00,VWS V12.08,2013-02-23 21:31:00,
2013-02-23 13:36:00,47.1,22.2,30.09,North,0,0.0,0.0,37,0.00,,OVC036,0.00,VWS V12.08,2013-02-23 21:36:00,
2013-02-23 13:41:00,46.8,20.6,30.09,North,0,0.0,0.0,35,0.00,,OVC036,0.00,VWS V12.08,2013-02-23 21:41:00,
2013-02-23 13:46:00,46.9,20.7,30.09,North,0,0.0,0.0,35,0.00,,OVC036,0.00,VWS V12.08,2013-02-23 21:46:00,
2013-02-23 13:51:00,47.1,20.2,30.09,North,0,0.0,0.0,34,0.00,,OVC036,0.00,VWS V12.08,2013-02-23 21:51:00,
2013-02-23 13:56:00,46.9,20.7,30.09,North,0,0.0,0.0,35,0.00,,OVC036,0.00,VWS V12.08,2013-02-23 21:56:00,
2013-02-23 14:01:00,46.9,20.0,30.09,North,0,0.0,0.0,34,0.00,,OVC036,0.00,VWS V12.08,2013-02-23 22:01:00,
2013-02-23 14:06:00,46.9,20.7,30.09,North,0,0.0,0.0,35,0.00,,OVC036,0.00,VWS V12.08,2013-02-23 22:06:00,
2013-02-23 14:11:00,46.9,18.6,30.12,North,0,0.0,0.0,32,0.00,,OVC036,0.00,VWS V12.08,2013-02-23 22:11:00,
2013-02-23 14:16:00,47.1,18.8,30.12,North,0,0.0,0.0,32,0.00,,OVC036,0.00,VWS V12.08,2013-02-23 22:16:00,
2013-02-23 14:21:00,47.1,18.1,30.12,North,0,0.0,0.0,31,0.00,,OVC036,0.00,VWS V12.08,2013-02-23 22:21:00,
2013-02-23 14:26:00,47.3,18.2,30.12,North,0,0.0,0.0,31,0.00,,OVC036,0.00,VWS V12.08,2013-02-23 22:26:00,
2013-02-23 14:31:00,47.3,18.2,30.12,North,0,0.0,0.0,31,0.00,,OVC036,0.00,VWS V12.08,2013-02-23 22:31:00,
2013-02-23 14:36:00,47.5,19.1,30.12,North,0,0.0,0.0,32,0.00,,OVC036,0.00,VWS V12.08,2013-02-23 22:36:00,
2013-02-23 14:41:00,47.5,18.4,30.12,North,0,0.0,0.0,31,0.00,,OVC036,0.00,VWS V12.08,2013-02-23 22:41:00,
2013-02-23 14:46:00,47.7,18.5,30.12,North,0,0.0,0.0,31,0.00,,OVC036,0.00,VWS V12.08,2013-02-23 22:46:00,
2013-02-23 14:51:00,47.7,17.8,30.12,North,0,0.0,0.0,30,0.00,,OVC036,0.00,VWS V12.08,2013-02-23 22:51:00,
2013-02-23 14:56:00,47.8,17.1,30.12,North,0,0.0,0.0,29,0.00,,OVC036,0.00,VWS V12.08,2013-02-23 22:56:00,
2013-02-23 15:01:00,47.7,17.0,30.12,North,0,0.0,0.0,29,0.00,,OVC036,0.00,VWS V12.08,2013-02-23 23:01:00,
2013-02-23 15:06:00,47.8,17.1,30.12,North,0,0.0,0.0,29,0.00,,OVC036,0.00,VWS V12.08,2013-02-23 23:06:00,
2013-02-23 15:11:00,47.8,17.1,30.12,North,0,0.0,0.0,29,0.00,,OVC036,0.00,VWS V12.08,2013-02-23 23:11:00,
2013-02-23 15:16:00,47.8,17.1,30.12,North,0,0.0,0.0,29,0.00,,OVC036,0.00,VWS V12.08,2013-02-23 23:16:00,
2013-02-23 15:21:00,48.0,17.3,30.12,North,0,0.0,0.0,29,0.00,,OVC036,0.00,VWS V12.08,2013-02-23 23:21:00,
2013-02-23 15:26:00,48.0,17.3,30.12,North,0,0.0,0.0,29,0.00,,OVC036,0.00,VWS V12.08,2013-02-23 23:26:00,
2013-02-23 15:31:00,48.0,17.3,30.12,North,0,0.0,0.0,29,0.00,,OVC036,0.00,VWS V12.08,2013-02-23 23:31:00,
2013-02-23 15:36:00,48.0,17.3,30.12,North,0,0.0,0.0,29,0.00,,OVC036,0.00,VWS V12.08,2013-02-23 23:36:00,
2013-02-23 15:41:00,47.8,17.9,30.12,North,0,0.0,0.0,30,0.00,,OVC036,0.00,VWS V12.08,2013-02-23 23:41:00,
2013-02-23 15:46:00,47.8,17.9,30.12,North,0,0.0,0.0,30,0.00,,OVC036,0.00,VWS V12.08,2013-02-23 23:46:00,
2013-02-23 15:51:00,47.8,18.7,30.12,North,0,0.0,0.0,31,0.00,,OVC036,0.00,VWS V12.08,2013-02-23 23:51:00,
2013-02-23 15:56:00,47.8,18.7,30.12,North,0,0.0,0.0,31,0.00,,OVC036,0.00,VWS V12.08,2013-02-23 23:56:00,
2013-02-23 16:01:00,47.8,19.4,30.12,North,0,0.0,0.0,32,0.00,,OVC036,0.00,VWS V12.08,2013-02-24 00:01:00,
2013-02-23 16:06:00,47.7,18.5,30.12,North,0,0.0,0.0,31,0.00,,OVC036,0.00,VWS V12.08,2013-02-24 00:06:00,
2013-02-23 16:11:00,47.7,20.0,30.12,North,0,0.0,0.0,33,0.00,,OVC036,0.00,VWS V12.08,2013-02-24 00:11:00,
2013-02-23 16:16:00,47.8,17.1,30.12,North,0,0.0,0.0,29,0.00,,OVC036,0.00,VWS V12.08,2013-02-24 00:16:00,
2013-02-23 16:21:00,47.8,19.4,30.12,North,0,0.0,0.0,32,0.00,,OVC036,0.00,VWS V12.08,2013-02-24 00:21:00,
2013-02-23 16:26:00,47.3,19.7,30.15,North,0,0.0,0.0,33,0.00,,OVC036,0.00,VWS V12.08,2013-02-24 00:26:00,
2013-02-23 16:31:00,46.4,19.6,30.15,North,0,0.0,0.0,34,0.00,,OVC036,0.00,VWS V12.08,2013-02-24 00:31:00,
2013-02-23 16:36:00,46.0,21.2,30.15,North,0,0.0,0.0,37,0.00,,OVC036,0.00,VWS V12.08,2013-02-24 00:36:00,
2013-02-23 16:41:00,45.9,21.1,30.15,North,0,0.0,0.0,37,0.00,,OVC036,0.00,VWS V12.08,2013-02-24 00:41:00,
2013-02-23 16:46:00,45.9,21.1,30.15,North,0,0.0,0.0,37,0.00,,OVC036,0.00,VWS V12.08,2013-02-24 00:46:00,
2013-02-23 16:51:00,45.9,21.7,30.15,North,0,0.0,0.0,38,0.00,,OVC036,0.00,VWS V12.08,2013-02-24 00:51:00,
2013-02-23 16:56:00,45.9,21.7,30.15,North,0,0.0,0.0,38,0.00,,OVC036,0.00,VWS V12.08,2013-02-24 00:56:00,
2013-02-23 17:01:00,45.7,21.5,30.15,North,0,0.0,0.0,38,0.00,,OVC036,0.00,VWS V12.08,2013-02-24 01:01:00,
2013-02-23 17:06:00,45.7,21.5,30.15,North,0,0.0,0.0,38,0.00,,OVC036,0.00,VWS V12.08,2013-02-24 01:06:00,
2013-02-23 17:11:00,45.5,21.4,30.15,North,0,0.0,0.0,38,0.00,,OVC036,0.00,VWS V12.08,2013-02-24 01:11:00,
2013-02-23 17:16:00,45.5,21.4,30.15,North,0,0.0,0.0,38,0.00,,OVC036,0.00,VWS V12.08,2013-02-24 01:16:00,
2013-02-23 17:21:00,45.5,21.4,30.15,North,0,0.0,0.0,38,0.00,,OVC036,0.00,VWS V12.08,2013-02-24 01:21:00,
2013-02-23 17:26:00,45.3,21.2,30.15,North,0,0.0,0.0,38,0.00,,OVC036,0.00,VWS V12.08,2013-02-24 01:26:00,
2013-02-23 17:31:00,45.3,21.2,30.15,North,0,0.0,0.0,38,0.00,,OVC036,0.00,VWS V12.08,2013-02-24 01:31:00,
2013-02-23 17:36:00,45.1,21.7,30.15,North,0,0.0,0.0,39,0.00,,OVC036,0.00,VWS V12.08,2013-02-24 01:36:00,
2013-02-23 17:41:00,45.1,21.7,30.15,North,0,0.0,0.0,39,0.00,,OVC036,0.00,VWS V12.08,2013-02-24 01:41:00,
2013-02-23 17:46:00,45.0,21.5,30.15,North,0,0.0,0.0,39,0.00,,OVC036,0.00,VWS V12.08,2013-02-24 01:46:00,
2013-02-23 17:51:00,44.8,21.4,30.15,North,0,0.0,0.0,39,0.00,,OVC036,0.00,VWS V12.08,2013-02-24 01:51:00,
2013-02-23 17:56:00,44.8,21.4,30.18,North,0,0.0,0.0,39,0.00,,OVC036,0.00,VWS V12.08,2013-02-24 01:56:00,
2013-02-23 18:01:00,44.6,21.2,30.18,North,0,0.0,0.0,39,0.00,,OVC036,0.00,VWS V12.08,2013-02-24 02:01:00,
2013-02-23 18:06:00,44.4,21.6,30.18,North,0,0.0,0.0,40,0.00,,OVC036,0.00,VWS V12.08,2013-02-24 02:06:00,
2013-02-23 18:11:00,44.2,21.5,30.18,North,0,0.0,0.0,40,0.00,,OVC036,0.00,VWS V12.08,2013-02-24 02:11:00,
2013-02-23 18:16:00,44.1,21.9,30.18,North,0,0.0,0.0,41,0.00,,OVC036,0.00,VWS V12.08,2013-02-24 02:16:00,
2013-02-23 18:21:00,43.9,21.7,30.18,North,0,0.0,0.0,41,0.00,,OVC036,0.00,VWS V12.08,2013-02-24 02:21:00,
2013-02-23 18:26:00,43.7,21.6,30.18,North,0,0.0,0.0,41,0.00,,OVC036,0.00,VWS V12.08,2013-02-24 02:26:00,
2013-02-23 18:31:00,43.3,21.8,30.18,North,0,0.0,0.0,42,0.00,,OVC036,0.00,VWS V12.08,2013-02-24 02:31:00,
2013-02-23 18:36:00,42.8,21.9,30.18,North,0,0.0,0.0,43,0.00,,OVC036,0.00,VWS V12.08,2013-02-24 02:36:00,
2013-02-23 18:41:00,42.4,23.1,30.18,North,0,0.0,0.0,46,0.00,,OVC036,0.00,VWS V12.08,2013-02-24 02:41:00,
2013-02-23 18:46:00,42.1,22.8,30.18,North,0,0.0,0.0,46,0.00,,OVC036,0.00,VWS V12.08,2013-02-24 02:46:00,
2013-02-23 18:51:00,41.7,22.5,30.18,North,0,0.0,0.0,46,0.00,,OVC036,0.00,VWS V12.08,2013-02-24 02:51:00,
2013-02-23 18:56:00,41.4,23.6,30.18,North,0,0.0,0.0,49,0.00,,OVC036,0.00,VWS V12.08,2013-02-24 02:56:00,
2013-02-23 19:01:00,41.0,23.8,30.18,North,0,0.0,0.0,50,0.00,,OVC036,0.00,VWS V12.08,2013-02-24 03:01:00,
2013-02-23 19:06:00,40.6,23.5,30.18,North,0,0.0,0.0,50,0.00,,OVC036,0.00,VWS V12.08,2013-02-24 03:06:00,
2013-02-23 19:11:00,40.5,23.8,30.18,North,0,0.0,0.0,51,0.00,,OVC036,0.00,VWS V12.08,2013-02-24 03:11:00,
2013-02-23 19:16:00,40.3,24.1,30.18,North,0,0.0,0.0,52,0.00,,OVC036,0.00,VWS V12.08,2013-02-24 03:16:00,
2013-02-23 19:21:00,40.1,23.9,30.18,North,0,0.0,0.0,52,0.00,,OVC036,0.00,VWS V12.08,2013-02-24 03:21:00,
2013-02-23 19:26:00,40.1,24.8,30.21,North,0,0.0,0.0,54,0.00,,OVC036,0.00,VWS V12.08,2013-02-24 03:26:00,
2013-02-23 19:31:00,40.1,24.8,30.21,North,0,0.0,0.0,54,0.00,,OVC036,0.00,VWS V12.08,2013-02-24 03:31:00,
2013-02-23 19:36:00,39.9,24.6,30.21,North,0,0.0,0.0,54,0.00,,OVC036,0.00,VWS V12.08,2013-02-24 03:36:00,
2013-02-23 19:41:00,39.7,24.5,30.21,North,0,0.0,0.0,54,0.00,,OVC036,0.00,VWS V12.08,2013-02-24 03:41:00,
2013-02-23 19:46:00,39.6,23.9,30.21,North,0,0.0,0.0,53,0.00,,OVC036,0.00,VWS V12.08,2013-02-24 03:46:00,
2013-02-23 19:51:00,39.4,24.1,30.21,North,0,0.0,0.0,54,0.00,,OVC036,0.00,VWS V12.08,2013-02-24 03:51:00,
2013-02-23 19:56:00,39.4,24.1,30.21,North,0,0.0,0.0,54,0.00,,OVC036,0.00,VWS V12.08,2013-02-24 03:56:00,
2013-02-23 20:01:00,39.4,24.1,30.21,North,0,0.0,0.0,54,0.00,,OVC036,0.00,VWS V12.08,2013-02-24 04:01:00,
2013-02-23 20:06:00,39.4,24.1,30.21,North,0,0.0,0.0,54,0.00,,OVC036,0.00,VWS V12.08,2013-02-24 04:06:00,
2013-02-23 20:11:00,39.4,24.1,30.21,North,0,0.0,0.0,54,0.00,,OVC036,0.00,VWS V12.08,2013-02-24 04:11:00,
2013-02-23 20:16:00,39.4,24.6,30.21,North,0,0.0,0.0,55,0.00,,OVC036,0.00,VWS V12.08,2013-02-24 04:16:00,
2013-02-23 20:21:00,39.6,24.7,30.21,North,0,0.0,0.0,55,0.00,,OVC036,0.00,VWS V12.08,2013-02-24 04:21:00,
2013-02-23 20:26:00,39.6,24.7,30.21,North,0,0.0,0.0,55,0.00,,OVC036,0.00,VWS V12.08,2013-02-24 04:26:00,
2013-02-23 20:31:00,39.6,24.7,30.21,North,0,0.0,0.0,55,0.00,,OVC036,0.00,VWS V12.08,2013-02-24 04:31:00,
2013-02-23 20:36:00,39.6,24.7,30.21,North,0,0.0,0.0,55,0.00,,OVC036,0.00,VWS V12.08,2013-02-24 04:36:00,
2013-02-23 20:41:00,39.6,24.7,30.21,North,0,0.0,0.0,55,0.00,,OVC036,0.00,VWS V12.08,2013-02-24 04:41:00,
2013-02-23 20:46:00,39.4,24.6,30.21,North,0,0.0,0.0,55,0.00,,OVC036,0.00,VWS V12.08,2013-02-24 04:46:00,
2013-02-23 20:51:00,39.4,25.0,30.21,North,0,0.0,0.0,56,0.00,,OVC036,0.00,VWS V12.08,2013-02-24 04:51:00,
2013-02-23 20:56:00,39.2,25.3,30.21,North,0,0.0,0.0,57,0.00,,OVC036,0.00,VWS V12.08,2013-02-24 04:56:00,
2013-02-23 21:00:00,39.0,25.5,30.21,North,0,0.0,0.0,58,0.00,,OVC036,0.00,VWS V12.08,2013-02-24 05:00:00,
2013-02-23 21:05:00,38.8,25.3,30.21,North,0,0.0,0.0,58,0.00,,OVC036,0.00,VWS V12.08,2013-02-24 05:05:00,
2013-02-23 21:10:00,38.8,25.8,30.24,North,0,0.0,0.0,59,0.00,,OVC036,0.00,VWS V12.08,2013-02-24 05:10:00,
2013-02-23 21:15:00,38.8,26.6,30.24,North,0,0.0,0.0,61,0.00,,OVC036,0.00,VWS V12.08,2013-02-24 05:15:00,
2013-02-23 21:20:00,38.7,26.8,30.24,North,0,0.0,0.0,62,0.00,,OVC036,0.00,VWS V12.08,2013-02-24 05:20:00,
2013-02-23 21:25:00,38.5,26.2,30.24,North,0,0.0,0.0,61,0.00,,OVC036,0.00,VWS V12.08,2013-02-24 05:25:00,
2013-02-23 21:30:00,38.5,26.2,30.24,North,0,0.0,0.0,61,0.00,,OVC036,0.00,VWS V12.08,2013-02-24 05:30:00,
2013-02-23 21:35:00,38.1,25.9,30.24,North,0,0.0,0.0,61,0.00,,OVC036,0.00,VWS V12.08,2013-02-24 05:35:00,
2013-02-23 21:40:00,37.9,25.7,30.24,North,0,0.0,0.0,61,0.00,,OVC036,0.00,VWS V12.08,2013-02-24 05:40:00,
2013-02-23 21:45:00,37.6,26.1,30.24,North,0,0.0,0.0,63,0.00,,OVC036,0.00,VWS V12.08,2013-02-24 05:45:00,
2013-02-23 21:50:00,37.6,26.9,30.24,North,0,0.0,0.0,65,0.00,,OVC036,0.00,VWS V12.08,2013-02-24 05:50:00,
2013-02-23 21:55:00,37.4,26.7,30.24,North,0,0.0,0.0,65,0.00,,OVC036,0.00,VWS V12.08,2013-02-24 05:55:00,
2013-02-23 22:00:00,37.4,27.1,30.24,North,0,0.0,0.0,66,0.00,,OVC036,0.00,VWS V12.08,2013-02-24 06:00:00,
2013-02-23 22:05:00,37.4,27.8,30.24,North,0,0.0,0.0,68,0.00,,OVC036,0.00,VWS V12.08,2013-02-24 06:05:00,
2013-02-23 22:10:00,37.4,27.8,30.24,North,0,0.0,0.0,68,0.00,,OVC036,0.00,VWS V12.08,2013-02-24 06:10:00,
2013-02-23 22:15:00,37.2,27.6,30.24,North,0,0.0,0.0,68,0.00,,OVC036,0.00,VWS V12.08,2013-02-24 06:15:00,
2013-02-23 22:20:00,37.2,27.6,30.24,North,0,0.0,0.0,68,0.00,,OVC036,0.00,VWS V12.08,2013-02-24 06:20:00,
2013-02-23 22:25:00,37.4,28.2,30.24,North,0,0.0,0.0,69,0.00,,OVC036,0.00,VWS V12.08,2013-02-24 06:25:00,
2013-02-23 22:30:00,37.4,28.2,30.24,North,0,0.0,0.0,69,0.00,,OVC036,0.00,VWS V12.08,2013-02-24 06:30:00,
2013-02-23 22:35:00,37.4,28.2,30.24,North,0,0.0,0.0,69,0.00,,OVC036,0.00,VWS V12.08,2013-02-24 06:35:00,
2013-02-23 22:40:00,37.4,28.2,30.24,North,0,0.0,0.0,69,0.00,,OVC036,0.00,VWS V12.08,2013-02-24 06:40:00,
2013-02-23 22:45:00,37.4,28.2,30.24,North,0,0.0,0.0,69,0.00,,OVC036,0.00,VWS V12.08,2013-02-24 06:45:00,
2013-02-23 22:50:00,37.2,28.0,30.24,North,0,0.0,0.0,69,0.00,,OVC036,0.00,VWS V12.08,2013-02-24 06:50:00,
2013-02-23 22:55:00,37.2,28.0,30.24,North,0,0.0,0.0,69,0.00,,OVC036,0.00,VWS V12.08,2013-02-24 06:55:00,
2013-02-23 23:00:00,37.0,28.2,30.24,North,0,0.0,0.0,70,0.00,,OVC036,0.00,VWS V12.08,2013-02-24 07:00:00,
2013-02-23 23:05:00,37.0,28.2,30.24,North,0,0.0,0.0,70,0.00,,OVC036,0.00,VWS V12.08,2013-02-24 07:05:00,
2013-02-23 23:10:00,36.9,28.0,30.24,North,0,0.0,0.0,70,0.00,,OVC036,0.00,VWS V12.08,2013-02-24 07:10:00,
2013-02-23 23:15:00,36.9,28.4,30.24,North,0,0.0,0.0,71,0.00,,OVC036,0.00,VWS V12.08,2013-02-24 07:15:00,
2013-02-23 23:20:00,36.9,28.4,30.24,North,0,0.0,0.0,71,0.00,,OVC036,0.00,VWS V12.08,2013-02-24 07:20:00,
2013-02-23 23:25:00,37.0,28.5,30.24,North,0,0.0,0.0,71,0.00,,OVC036,0.00,VWS V12.08,2013-02-24 07:25:00,
2013-02-23 23:30:00,37.0,28.5,30.24,North,0,0.0,0.0,71,0.00,,OVC036,0.00,VWS V12.08,2013-02-24 07:30:00,
2013-02-23 23:35:00,37.0,28.5,30.24,North,0,0.0,0.0,71,0.00,,OVC036,0.00,VWS V12.08,2013-02-24 07:35:00,
2013-02-23 23:40:00,37.0,28.5,30.24,North,0,0.0,0.0,71,0.00,,OVC036,0.00,VWS V12.08,2013-02-24 07:40:00,
2013-02-23 23:45:00,36.9,28.4,30.24,North,0,0.0,0.0,71,0.00,,OVC036,0.00,VWS V12.08,2013-02-24 07:45:00,
2013-02-23 23:50:00,37.0,28.5,30.24,North,0,0.0,0.0,71,0.00,,OVC036,0.00,VWS V12.08,2013-02-24 07:50:00,
2013-02-23 23:55:00,37.0,28.5,30.24,North,0,0.0,0.0,71,0.00,,OVC036,0.00,VWS V12.08,2013-02-24 07:55:00,